Temp
11 11 10 10 10 10 9 9 9 8 8 8 8 8 8 8 8 8 8 7 7 7 7 7 7 6 6 6 5 5 5 4 4 3 3 3 2 2 2 2 2 1 1 1 1 0 -0 -1 -1 -1 -1 -1 -1 -1 -1 -1 -0 -0 -0 0 0 0 0 0 -0 -1 -1 -2 -1
10 10 10 10 9 9 9 8 8 8 8 8 8 8 8 8 7 7 7 7 7 7 7 7 6 6 5 5 4 4 4 3 3 3 2 2 2 2 1 1 1 0 0 -0 -0 -1 -1 -1 -1 -1 -1 -1 -0 -0 -0 -0 0 0 0 0 0 0 -0 -1 -1 -2 -2 -2 -2
10 9 9 9 9 8 8 8 8 8 8 7 7 7 7 7 7 7 7 7 7 6 6 6 5 5 4 4 3 3 3 2 2 2 2 2 1 1 1 1 0 0 -0 -0 -1 -1 -1 -1 -1 -0 -0 0 0 0 0 0 0 0 -0 -0 -0 -1 -1 -2 -2 -2 -2 -2 -2
9 9 8 8 8 8 8 7 7 7 7 7 7 7 7 7 7 6 6 6 6 6 5 5 4 4 3 3 3 3 2 2 2 2 1 1 1 1 1 0 0 -0 -0 -0 -0 -1 -0 -0 -0 0 0 0 0 0 -0 -1 -1 -1 -1 -2 -2 -2 -2 -2 -2 -2 -2 -2 -1
8 8 8 8 7 7 7 7 7 7 7 7 7 6 6 6 6 6 6 5 5 5 4 4 4 3 3 3 2 2 2 2 2 1 1 1 1 0 0 0 0 0 0 -0 -0 -0 0 0 0 0 0 -0 -0 -1 -1 -1 -2 -2 -2 -2 -3 -3 -2 -2 -2 -2 -2 -2 -1
8 7 7 7 7 7 7 7 7 6 6 6 6 6 6 6 5 5 5 4 4 4 4 3 3 3 2 2 2 2 1 1 1 1 1 1 0 0 -0 -0 0 0 -0 -0 0 0 0 0 0 -0 -0 -1 -1 -1 -2 -2 -2 -2 -2 -2 -3 -2 -2 -2 -2 -2 -2 -2 -2
7 7 7 7 7 6 6 6 6 6 6 6 6 5 5 5 5 4 4 4 4 3 3 3 3 2 2 1 1 1 1 1 1 0 0 0 -0 -0 -0 -0 -0 -0 0 0 0 0 0 0 -0 -0 -1 -1 -1 -2 -2 -2 -2 -2 -2 -2 -2 -2 -2 -2 -2 -2 -2 -2 -2
7 7 7 7 6 6 6 6 6 6 5 5 5 5 4 4 4 4 4 4 3 3 2 2 2 1 1 1 1 1 1 0 0 0 0 0 0 0 0 0 0 0 1 1 0 0 -0 -0 -1 -1 -1 -1 -2 -2 -2 -2 -2 -2 -2 -2 -2 -2 -2 -2 -2 -2 -2 -2 -2
7 7 6 6 6 6 6 6 5 5 5 5 4 4 4 4 4 4 3 3 3 2 2 2 1 1 1 1 1 0 0 0 0 1 1 1 1 1 1 1 1 0 0 -0 -0 -1 -1 -1 -1 -2 -2 -2 -2 -2 -2 -2 -2 -2 -2 -2 -2 -2 -2 -2 -2 -2 -2 -2 -2
6 6 6 6 6 6 5 5 5 4 4 4 4 4 4 4 3 3 3 3 2 2 1 1 1 1 1 1 0 0 1 1 1 1 1 1 1 1 1 0 0 -0 -1 -1 -1 -1 -2 -2 -2 -2 -2 -2 -2 -2 -2 -2 -2 -2 -2 -2 -2 -2 -2 -2 -2 -2 -2 -2 -3
6 6 6 6 5 5 5 5 4 4 4 4 3 3 3 3 3 3 2 2 2 1 1 1 1 1 1 1 1 1 1 1 1 1 1 1 1 0 -0 -0 -1 -1 -1 -2 -2 -2 -2 -2 -2 -2 -2 -2 -2 -2 -2 -2 -2 -2 -2 -2 -2 -2 -2 -2 -2 -3 -3 -3 -3
6 6 5 5 5 5 4 4 4 4 3 3 3 3 3 3 3 2 2 2 1 1 1 1 1 1 1 1 1 1 0 0 0 0 0 0 -0 -0 -1 -1 -1 -2 -2 -2 -2 -2 -2 -2 -2 -2 -2 -2 -2 -2 -2 -2 -2 -2 -2 -2 -2 -2 -3 -3 -3 -3 -3 -3 -3
5 5 5 5 4 4 4 4 3 3 3 3 3 3 2 2 2 2 2 2 1 1 1 1 1 1 1 1 1 0 0 0 0 -0 -0 -0 -1 -1 -1 -1 -2 -2 -2 -2 -2 -2 -2 -2 -2 -2 -2 -2 -2 -2 -2 -2 -2 -2 -2 -3 -3 -3 -3 -3 -3 -3 -3 -3 -3
5 5 5 4 4 4 3 3 3 3 3 3 3 2 2 2 2 2 2 2 1 1 1 1 1 1 1 1 1 0 0 -0 -0 -0 -0 -1 -1 -1 -1 -1 -1 -2 -2 -2 -2 -2 -2 -2 -2 -2 -2 -2 -2 -2 -2 -2 -3 -3 -3 -3 -3 -3 -3 -3 -3 -3 -3 -4 -4
5 4 4 4 4 3 3 3 3 3 3 3 2 2 3 2 2 2 2 1 1 1 1 1 1 1 1 0 0 0 -0 -0 -1 -1 -1 -1 -1 -1 -1 -1 -2 -2 -2 -2 -2 -2 -2 -2 -2 -2 -2 -2 -2 -2 -3 -3 -3 -3 -3 -3 -3 -3 -3 -3 -4 -4 -4 -4 -4
4 4 4 4 3 3 3 3 3 3 2 2 2 2 2 2 2 2 2 1 1 1 1 1 1 1 0 0 -0 -0 -1 -1 -1 -1 -1 -1 -1 -1 -2 -2 -2 -2 -2 -2 -2 -2 -2 -2 -2 -2 -2 -3 -3 -3 -3 -3 -3 -3 -3 -3 -3 -3 -4 -4 -4 -4 -4 -4 -4
4 4 3 3 3 3 3 3 2 2 2 2 2 2 2 2 2 1 1 1 1 1 1 0 0 0 -0 -0 -1 -1 -1 -1 -1 -1 -1 -1 -2 -2 -2 -2 -2 -2 -2 -2 -2 -2 -2 -2 -3 -3 -3 -3 -3 -3 -3 -3 -3 -3 -3 -4 -4 -4 -4 -4 -4 -4 -4 -4 -4
3 3 3 3 3 3 2 2 2 2 2 2 2 1 1 1 1 1 1 0 0 0 0 0 -0 -0 -1 -1 -1 -1 -1 -1 -1 -2 -2 -2 -2 -2 -2 -2 -2 -2 -2 -2 -2 -2 -2 -3 -3 -3 -3 -3 -3 -3 -3 -3 -3 -4 -4 -4 -4 -4 -4 -4 -4 -4 -4 -4 -4
3 3 3 3 2 2 2 2 2 1 1 1 1 1 1 1 0 0 0 0 0 0 0 -0 -0 -1 -1 -1 -1 -1 -1 -1 -2 -2 -2 -2 -2 -2 -2 -2 -2 -2 -2 -2 -2 -3 -3 -3 -3 -3 -3 -3 -3 -3 -4 -4 -4 -4 -4 -4 -4 -4 -4 -4 -4 -4 -4 -4 -5
3 3 3 2 2 2 2 2 1 1 1 1 1 1 0 0 -0 -0 -0 -0 -0 -0 -0 -1 -1 -1 -1 -2 -2 -2 -2 -2 -2 -2 -2 -2 -2 -2 -2 -2 -2 -2 -2 -3 -3 -3 -3 -3 -3 -3 -3 -3 -4 -4 -4 -4 -4 -4 -4 -4 -4 -4 -4 -4 -4 -5 -5 -5 -5
3 3 2 2 2 2 1 1 1 1 1 1 1 0 0 -0 -0 -0 -0 -0 0 -0 -0 -1 -1 -2 -2 -2 -2 -2 -2 -2 -2 -2 -2 -2 -2 -2 -2 -2 -3 -3 -3 -3 -3 -3 -3 -3 -3 -3 -4 -4 -4 -4 -4 -4 -4 -4 -4 -4 -4 -4 -5 -5 -5 -5 -5 -5 -5
3 2 2 2 2 1 1 1 1 1 1 1 0 0 -0 -0 -0 -0 -0 -0 0 -0 -1 -1 -1 -2 -2 -2 -2 -2 -2 -2 -2 -2 -2 -2 -2 -2 -2 -3 -3 -3 -3 -3 -3 -3 -3 -3 -4 -4 -4 -4 -4 -4 -4 -4 -4 -4 -4 -5 -5 -5 -5 -5 -5 -5 -5 -5 -5
2 2 2 2 1 1 1 1 1 1 1 0 0 -0 -0 -0 -0 -0 -0 -0 -0 -0 -1 -1 -1 -2 -2 -2 -2 -2 -2 -2 -2 -2 -2 -2 -2 -3 -3 -3 -3 -3 -3 -3 -3 -3 -4 -4 -4 -4 -4 -4 -4 -4 -4 -4 -5 -5 -5 -5 -5 -5 -5 -5 -5 -5 -5 -5 -5
2 2 2 1 1 1 1 1 1 0 0 0 -0 -0 -0 -0 -0 -0 -0 -0 -0 -0 -1 -1 -1 -1 -2 -2 -2 -2 -2 -2 -2 -2 -2 -3 -3 -3 -3 -3 -3 -3 -3 -3 -3 -4 -4 -4 -4 -4 -4 -4 -4 -4 -5 -5 -5 -5 -5 -5 -5 -5 -5 -5 -5 -5 -5 -6 -6
2 2 1 1 1 1 1 0 0 0 -0 -0 -0 -0 -0 -0 -0 -0 -0 -0 -0 -0 -1 -1 -1 -1 -2 -2 -2 -2 -2 -2 -2 -3 -3 -3 -3 -3 -3 -3 -3 -3 -3 -4 -4 -4 -4 -4 -4 -4 -4 -4 -5 -5 -5 -5 -5 -5 -5 -5 -5 -5 -5 -5 -6 -6 -6 -6 -6
2 1 1 1 1 0 0 0 -0 -0 -0 -0 -0 -0 -1 -1 -1 -0 -0 -0 -0 -1 -1 -1 -1 -2 -2 -2 -2 -2 -3 -3 -3 -3 -3 -3 -3 -3 -3 -3 -3 -3 -4 -4 -4 -4 -4 -4 -4 -4 -5 -5 -5 -5 -5 -5 -5 -5 -5 -5 -6 -6 -6 -6 -6 -6 -6 -6 -6
1 1 0 0 0 0 0 -0 -0 -0 -0 -0 -0 -1 -1 -1 -1 -0 -0 -0 -1 -1 -1 -1 -2 -2 -2 -2 -3 -3 -3 -3 -3 -3 -3 -3 -3 -3 -3 -3 -3 -4 -4 -4 -4 -4 -4 -4 -4 -5 -5 -5 -5 -5 -5 -5 -5 -6 -6 -6 -6 -6 -6 -6 -6 -6 -6 -6 -7
0 0 -0 -0 -0 -0 -0 -0 -1 -1 -1 -1 -1 -1 -1 -1 -1 -1 -1 -1 -1 -1 -2 -2 -2 -2 -3 -3 -3 -3 -3 -3 -3 -3 -3 -3 -3 -3 -3 -3 -4 -4 -4 -4 -4 -4 -4 -4 -5 -5 -5 -5 -5 -5 -6 -6 -6 -6 -6 -6 -6 -6 -6 -7 -7 -7 -7 -7 -7
-0 -0 -0 -0 -0 -1 -1 -1 -1 -1 -1 -1 -1 -1 -1 -1 -1 -1 -1 -1 -2 -2 -2 -2 -3 -3 -3 -3 -3 -3 -3 -3 -3 -3 -3 -3 -3 -3 -3 -3 -4 -4 -4 -4 -4 -4 -4 -5 -5 -5 -5 -5 -6 -6 -6 -6 -6 -6 -6 -6 -6 -7 -7 -7 -7 -7 -7 -7 -7
-0 -1 -1 -1 -1 -1 -1 -1 -1 -1 -1 -1 -1 -1 -1 -1 -1 -2 -2 -2 -2 -2 -3 -3 -3 -3 -3 -3 -3 -3 -3 -3 -3 -3 -3 -3 -3 -3 -4 -4 -4 -4 -4 -4 -4 -4 -5 -5 -5 -5 -5 -6 -6 -6 -6 -6 -6 -6 -7 -7 -7 -7 -7 -7 -7 -7 -7 -7 -8
-1 -1 -1 -1 -1 -1 -1 -2 -2 -2 -2 -2 -2 -2 -2 -2 -2 -2 -2 -2 -2 -3 -3 -3 -3 -3 -3 -3 -3 -3 -3 -3 -3 -3 -4 -4 -4 -4 -4 -4 -4 -4 -4 -4 -5 -5 -5 -5 -5 -5 -6 -6 -6 -6 -6 -6 -7 -7 -7 -7 -7 -7 -7 -8 -8 -8 -8 -8 -8
-1 -1 -1 -1 -1 -1 -1 -2 -2 -2 -2 -2 -2 -2 -2 -2 -2 -2 -2 -3 -3 -3 -3 -3 -3 -3 -3 -3 -3 -3 -3 -4 -4 -4 -4 -4 -4 -4 -4 -4 -4 -4 -4 -5 -5 -5 -5 -5 -6 -6 -6 -6 -6 -7 -7 -7 -7 -7 -7 -7 -7 -8 -8 -8 -8 -8 -8 -8 -8
-1 -1 -1 -1 -1 -1 -1 -2 -2 -2 -2 -2 -2 -2 -2 -2 -2 -3 -3 -3 -3 -3 -3 -3 -3 -3 -3 -3 -4 -4 -4 -4 -4 -4 -4 -4 -4 -4 -4 -4 -4 -5 -5 -5 -5 -5 -6 -6 -6 -6 -6 -7 -7 -7 -7 -7 -7 -7 -8 -8 -8 -8 -8 -8 -8 -8 -8 -9 -9
-1 -1 -1 -2 -2 -2 -2 -2 -2 -2 -2 -2 -2 -2 -2 -3 -3 -3 -3 -4 -4 -4 -4 -4 -4 -4 -4 -4 -4 -4 -4 -4 -4 -4 -4 -4 -4 -4 -4 -4 -5 -5 -5 -5 -6 -6 -6 -6 -6 -7 -7 -7 -7 -7 -7 -7 -8 -8 -8 -8 -8 -8 -8 -9 -9 -9 -9 -9 -9
-1 -1 -2 -2 -2 -2 -2 -2 -2 -3 -3 -3 -3 -3 -3 -3 -3 -4 -4 -4 -4 -4 -4 -4 -4 -4 -4 -4 -4 -4 -4 -4 -4 -4 -4 -4 -4 -5 -5 -5 -5 -5 -6 -6 -6 -6 -6 -7 -7 -7 -7 -7 -7 -8 -8 -8 -8 -8 -8 -8 -9 -9 -9 -9 -9 -9 -9 -9 -9
-2 -2 -2 -2 -2 -3 -3 -3 -3 -3 -3 -3 -3 -3 -3 -3 -4 -4 -4 -4 -4 -4 -4 -4 -4 -4 -4 -4 -4 -4 -4 -4 -4 -4 -4 -5 -5 -5 -5 -5 -5 -6 -6 -6 -7 -7 -7 -7 -7 -7 -8 -8 -8 -8 -8 -8 -8 -8 -9 -9 -9 -9 -9 -10 -10 -10 -10 -10 -9
-2 -3 -3 -3 -3 -3 -3 -3 -3 -3 -3 -3 -3 -4 -4 -4 -4 -4 -4 -4 -4 -4 -4 -4 -4 -4 -4 -4 -4 -4 -4 -5 -5 -5 -5 -5 -5 -5 -6 -6 -6 -6 -6 -7 -7 -7 -7 -7 -8 -8 -8 -8 -8 -8 -8 -9 -9 -9 -9 -10 -10 -10 -10 -10 -10 -10 -10 -10 -10
-3 -3 -3 -3 -3 -3 -4 -4 -4 -4 -4 -4 -4 -4 -4 -4 -4 -4 -4 -4 -4 -4 -4 -4 -4 -4 -4 -4 -4 -5 -5 -5 -5 -5 -5 -5 -6 -6 -6 -6 -6 -7 -7 -7 -7 -7 -8 -8 -8 -8 -8 -8 -8 -9 -9 -9 -9 -10 -10 -10 -10 -10 -10 -10 -10 -10 -10 -10 -10
-3 -3 -4 -4 -4 -4 -4 -4 -4 -4 -4 -4 -4 -4 -4 -4 -4 -4 -4 -4 -4 -4 -4 -5 -5 -5 -5 -5 -5 -5 -5 -5 -5 -5 -6 -6 -6 -6 -6 -7 -7 -7 -7 -7 -8 -8 -8 -8 -8 -8 -8 -9 -9 -9 -9 -10 -10 -10 -10 -10 -10 -10 -10 -10 -9 -9 -9 -9 -10
-4 -4 -4 -4 -4 -4 -4 -4 -4 -4 -4 -4 -4 -4 -4 -4 -4 -4 -4 -4 -5 -5 -5 -5 -5 -5 -5 -5 -5 -5 -5 -5 -6 -6 -6 -6 -6 -7 -7 -7 -7 -7 -7 -8 -8 -8 -8 -8 -8 -8 -9 -9 -9 -9 -10 -10 -10 -10 -10 -10 -10 -10 -10 -10 -9 -10 -10 -10 -10
-4 -4 -4 -4 -4 -4 -4 -4 -4 -4 -4 -4 -4 -4 -4 -4 -4 -4 -4 -5 -5 -5 -5 -5 -5 -5 -5 -5 -5 -6 -6 -6 -6 -6 -6 -6 -7 -7 -7 -7 -7 -8 -8 -8 -8 -8 -8 -8 -9 -9 -9 -9 -9 -10 -10 -10 -10 -10 -10 -10 -10 -10 -10 -10 -10 -10 -10 -10 -10
Height
1495 1493 1492 1490 1489 1487 1486 1484 1482 1481 1479 1477 1475 1473 1471 1469 1467 1466 1466 1465 1464 1463 1462 1461 1460 1459 1458 1457 1457 1457 1457 1457 1457 1457 1458 1458 1458 1458 1458 1458 1458 1459 1459 1458 1459 1459 1459 1460 1460 1460 1460 1461 1461 1461 1460 1460 1460 1460 1460 1460 1461 1460 1460 1460 1460 1460 1461 1463 1464
1492 1491 1490 1488 1487 1485 1483 1482 1480 1479 1477 1475 1473 1471 1469 1468 1466 1465 1464 1464 1463 1462 1461 1460 1459 1458 1457 1457 1457 1456 1457 1457 1456 1456 1457 1457 1456 1456 1456 1457 1457 1457 1457 1457 1458 1458 1458 1459 1459 1459 1460 1460 1460 1459 1459 1459 1459 1459 1459 1459 1459 1459 1458 1458 1458 1459 1461 1462 1463
1490 1489 1487 1486 1484 1483 1481 1480 1478 1477 1475 1473 1471 1470 1468 1467 1466 1464 1463 1462 1461 1461 1460 1459 1458 1458 1457 1457 1457 1456 1456 1456 1456 1456 1456 1456 1456 1456 1456 1456 1456 1456 1456 1457 1457 1457 1458 1458 1459 1459 1459 1458 1458 1458 1458 1457 1457 1457 1457 1457 1457 1457 1457 1457 1458 1459 1460 1461 1461
1488 1486 1485 1484 1482 1481 1479 1478 1476 1475 1473 1472 1470 1468 1467 1466 1465 1463 1462 1462 1461 1460 1460 1460 1459 1458 1457 1457 1456 1456 1456 1456 1456 1456 1456 1456 1456 1456 1456 1456 1456 1456 1456 1456 1457 1457 1457 1458 1458 1458 1457 1457 1456 1456 1456 1455 1455 1455 1455 1455 1455 1456 1456 1456 1457 1458 1459 1460 1460
1486 1484 1483 1481 1480 1479 1477 1476 1475 1473 1472 1471 1469 1467 1466 1465 1464 1463 1462 1461 1461 1461 1460 1459 1459 1458 1457 1456 1456 1456 1456 1456 1456 1456 1457 1457 1456 1456 1456 1456 1456 1456 1456 1456 1456 1457 1457 1457 1456 1456 1456 1455 1454 1454 1454 1453 1453 1453 1453 1453 1454 1454 1455 1456 1457 1458 1458 1458 1458
1483 1482 1481 1480 1479 1477 1476 1475 1473 1472 1471 1469 1468 1466 1465 1464 1463 1463 1462 1461 1461 1460 1460 1459 1458 1457 1457 1457 1456 1456 1456 1457 1457 1457 1457 1456 1456 1456 1456 1456 1456 1456 1456 1456 1456 1456 1456 1456 1455 1454 1453 1453 1453 1452 1452 1452 1452 1452 1452 1453 1453 1454 1455 1456 1456 1456 1456 1456 1456
1482 1481 1479 1478 1477 1476 1475 1473 1472 1471 1469 1468 1467 1466 1465 1464 1463 1462 1462 1461 1460 1459 1459 1458 1458 1458 1458 1458 1458 1457 1457 1457 1457 1457 1457 1457 1457 1457 1457 1457 1457 1456 1456 1456 1456 1455 1455 1454 1453 1452 1452 1452 1452 1451 1452 1452 1452 1452 1453 1453 1454 1454 1455 1455 1455 1455 1455 1455 1454
1481 1479 1478 1477 1476 1475 1473 1472 1471 1469 1468 1467 1466 1465 1464 1464 1463 1462 1461 1461 1460 1459 1458 1458 1458 1458 1459 1459 1459 1458 1458 1458 1458 1458 1458 1458 1457 1457 1457 1456 1456 1456 1455 1455 1454 1454 1453 1453 1452 1452 1452 1452 1452 1452 1452 1452 1452 1452 1452 1453 1453 1453 1453 1453 1453 1453 1453 1453 1452
1480 1478 1477 1476 1475 1473 1472 1471 1470 1469 1467 1466 1466 1465 1464 1463 1462 1461 1460 1460 1459 1459 1458 1458 1459 1459 1459 1459 1459 1459 1458 1458 1458 1457 1457 1457 1457 1456 1456 1455 1455 1454 1454 1453 1453 1453 1453 1452 1452 1452 1452 1452 1452 1452 1452 1452 1452 1452 1452 1452 1452 1452 1452 1452 1452 1452 1451 1451 1451
1479 1477 1476 1475 1473 1472 1471 1470 1469 1468 1466 1465 1465 1464 1463 1462 1461 1461 1460 1460 1459 1459 1459 1459 1459 1459 1459 1458 1458 1458 1458 1457 1457 1457 1456 1456 1456 1455 1454 1453 1453 1453 1453 1453 1453 1453 1452 1452 1452 1452 1452 1452 1452 1452 1452 1452 1452 1452 1451 1451 1451 1451 1451 1451 1450 1450 1449 1449 1448
1478 1476 1475 1474 1472 1471 1470 1469 1468 1467 1466 1465 1464 1463 1462 1461 1461 1461 1460 1460 1460 1459 1459 1459 1458 1458 1458 1458 1458 1457 1457 1457 1456 1456 1455 1454 1454 1453 1452 1452 1452 1452 1452 1452 1452 1452 1452 1452 1452 1452 1452 1452 1452 1452 1451 1451 1451 1451 1450 1450 1449 1449 1448 1448 1448 1448 1447 1446 1446
1476 1475 1474 1473 1471 1470 1469 1468 1467 1466 1465 1464 1463 1462 1462 1461 1461 1461 1460 1460 1460 1459 1459 1458 1458 1458 1457 1457 1457 1456 1456 1456 1455 1454 1454 1453 1452 1451 1451 1451 1451 1452 1452 1452 1453 1453 1452 1452 1452 1451 1451 1451 1451 1451 1450 1450 1449 1449 1448 1448 1447 1447 1446 1446 1446 1446 1445 1444 1444
1475 1474 1473 1472 1471 1469 1468 1467 1466 1466 1465 1464 1463 1462 1462 1462 1461 1461 1461 1460 1459 1459 1458 1458 1458 1457 1457 1456 1456 1456 1455 1455 1454 1453 1452 1452 1451 1451 1451 1452 1452 1452 1452 1452 1452 1452 1452 1451 1451 1451 1450 1450 1450 1449 1449 1448 1448 1447 1446 1446 1446 1445 1445 1444 1444 1443 1443 1442 1441
1474 1473 1472 1471 1470 1469 1468 1466 1466 1465 1464 1464 1463 1462 1462 1462 1461 1461 1460 1460 1459 1459 1458 1458 1457 1457 1456 1456 1455 1455 1454 1453 1453 1452 1452 1452 1452 1452 1452 1452 1452 1452 1452 1452 1452 1451 1451 1451 1450 1449 1449 1448 1448 1448 1447 1447 1446 1446 1445 1444 1443 1443 1442 1442 1441 1441 1440 1440 1439
1472 1471 1470 1470 1468 1468 1467 1466 1465 1464 1464 1463 1462 1462 1461 1461 1461 1460 1460 1459 1459 1458 1458 1457 1457 1456 1456 1456 1455 1454 1453 1453 1453 1452 1452 1452 1452 1452 1451 1451 1451 1451 1451 1451 1451 1450 1450 1449 1449 1448 1448 1447 1446 1446 1446 1445 1444 1444 1443 1442 1441 1441 1440 1440 1439 1439 1438 1437 1437
1471 1470 1469 1468 1467 1466 1466 1465 1464 1464 1463 1462 1462 1461 1461 1460 1460 1459 1459 1459 1458 1458 1457 1457 1456 1455 1455 1455 1454 1453 1453 1452 1452 1452 1452 1451 1451 1451 1451 1451 1451 1451 1450 1450 1449 1449 1448 1448 1447 1447 1446 1446 1445 1444 1444 1443 1442 1441 1441 1440 1439 1439 1438 1437 1437 1436 1436 1435 1435
1470 1469 1468 1467 1466 1465 1465 1464 1463 1463 1462 1461 1461 1460 1460 1459 1459 1458 1458 1458 1457 1457 1456 1456 1455 1454 1454 1453 1453 1453 1452 1452 1452 1451 1451 1451 1451 1451 1450 1450 1450 1449 1449 1448 1448 1447 1447 1446 1446 1445 1444 1444 1443 1442 1441 1441 1440 1439 1439 1438 1437 1436 1436 1435 1435 1434 1434 1433 1432
1469 1468 1467 1466 1465 1464 1464 1463 1462 1462 1461 1460 1460 1459 1458 1458 1458 1457 1457 1457 1456 1456 1455 1454 1454 1453 1453 1452 1452 1452 1451 1451 1451 1451 1450 1450 1450 1450 1449 1449 1448 1448 1447 1447 1446 1446 1445 1444 1444 1443 1442 1441 1441 1440 1439 1439 1438 1437 1436 1436 1435 1434 1434 1433 1433 1432 1431 1431 1430
1469 1468 1467 1466 1465 1464 1463 1462 1461 1461 1460 1459 1459 1458 1457 1457 1457 1457 1456 1456 1455 1455 1454 1453 1452 1452 1451 1451 1451 1451 1451 1450 1450 1450 1450 1449 1449 1448 1448 1447 1447 1446 1446 1445 1445 1444 1443 1442 1442 1441 1441 1440 1439 1438 1437 1436 1436 1435 1434 1433 1433 1432 1431 1431 1430 1430 1429 1428 1428
1468 1467 1466 1465 1464 1463 1462 1461 1460 1460 1459 1458 1457 1457 1457 1456 1456 1456 1455 1455 1454 1453 1453 1452 1451 1451 1451 1451 1450 1450 1450 1450 1449 1449 1448 1448 1447 1447 1446 1446 1445 1445 1444 1443 1443 1442 1441 1441 1440 1439 1438 1437 1436 1436 1435 1434 1433 1432 1432 1431 1431 1430 1429 1428 1428 1427 1426 1426 1425
1467 1466 1465 1464 1463 1462 1461 1460 1459 1458 1458 1457 1456 1456 1456 1455 1455 1455 1454 1454 1453 1452 1451 1451 1451 1450 1450 1450 1449 1449 1449 1448 1448 1448 1447 1446 1446 1446 1445 1444 1443 1443 1442 1442 1441 1440 1440 1439 1438 1437 1436 1435 1434 1433 1432 1432 1431 1430 1429 1429 1428 1427 1426 1426 1425 1425 1424 1423 1422
1466 1465 1464 1463 1462 1461 1460 1459 1458 1457 1457 1456 1456 1455 1455 1454 1454 1453 1453 1453 1452 1451 1451 1450 1450 1449 1449 1448 1448 1448 1447 1447 1447 1446 1446 1445 1445 1444 1443 1442 1442 1441 1441 1440 1439 1438 1437 1436 1436 1435 1434 1433 1432 1431 1430 1429 1428 1427 1426 1426 1425 1425 1424 1423 1422 1422 1421 1421 1420
1465 1464 1463 1462 1461 1460 1459 1458 1457 1456 1456 1455 1455 1454 1453 1453 1452 1452 1452 1451 1451 1450 1449 1449 1448 1448 1447 1447 1446 1446 1446 1446 1445 1445 1444 1444 1443 1442 1441 1441 1440 1439 1439 1438 1437 1436 1435 1434 1433 1432 1431 1430 1429 1428 1428 1427 1426 1425 1424 1423 1422 1421 1421 1420 1420 1419 1418 1418 1417
1464 1463 1462 1461 1460 1459 1458 1457 1456 1456 1455 1454 1454 1453 1452 1451 1451 1451 1451 1450 1449 1449 1448 1447 1447 1447 1446 1446 1445 1445 1445 1444 1444 1443 1442 1442 1441 1441 1440 1439 1438 1438 1437 1436 1435 1434 1433 1432 1431 1430 1429 1428 1427 1426 1425 1424 1423 1422 1421 1421 1420 1419 1418 1417 1417 1416 1416 1415 1414
1463 1462 1461 1460 1459 1458 1457 1456 1456 1455 1454 1454 1453 1452 1451 1451 1450 1450 1449 1448 1448 1447 1447 1446 1446 1445 1445 1445 1444 1444 1443 1443 1442 1441 1441 1440 1439 1439 1438 1437 1436 1436 1435 1434 1433 1432 1431 1430 1429 1427 1426 1425 1424 1423 1422 1421 1421 1420 1419 1418 1417 1416 1415 1414 1414 1413 1412 1412 1411
1462 1461 1460 1459 1458 1457 1456 1456 1455 1454 1454 1453 1452 1451 1450 1449 1448 1448 1447 1447 1446 1446 1445 1445 1445 1444 1444 1443 1443 1442 1442 1441 1441 1440 1439 1438 1437 1437 1436 1436 1435 1434 1433 1432 1431 1430 1429 1427 1426 1425 1424 1423 1421 1421 1420 1419 1418 1417 1416 1416 1415 1413 1412 1411 1411 1410 1409 1409 1408
1461 1460 1459 1458 1457 1456 1456 1455 1454 1453 1452 1451 1451 1449 1448 1447 1447 1446 1446 1445 1445 1445 1444 1444 1443 1443 1442 1442 1441 1441 1440 1440 1439 1438 1437 1436 1436 1435 1434 1433 1432 1431 1431 1430 1428 1427 1426 1425 1424 1423 1422 1421 1419 1418 1417 1416 1416 1415 1414 1413 1412 1411 1410 1409 1408 1407 1406 1405 1405
1460 1459 1458 1457 1456 1456 1455 1454 1453 1452 1451 1450 1449 1448 1447 1446 1446 1445 1444 1444 1444 1443 1443 1443 1442 1442 1441 1441 1440 1439 1439 1438 1437 1436 1435 1434 1434 1433 1432 1431 1430 1429 1428 1427 1426 1425 1423 1422 1421 1420 1419 1418 1417 1416 1415 1414 1413 1412 1411 1410 1409 1408 1407 1406 1405 1404 1403 1402 1401
1458 1458 1457 1456 1456 1455 1454 1452 1451 1450 1449 1449 1448 1447 1446 1445 1444 1444 1443 1443 1442 1442 1442 1441 1441 1440 1440 1439 1438 1438 1437 1436 1435 1434 1433 1432 1431 1431 1430 1429 1428 1427 1426 1425 1423 1422 1421 1420 1419 1418 1417 1416 1415 1414 1412 1411 1410 1409 1408 1407 1406 1405 1404 1403 1402 1401 1400 1399 1398
1457 1456 1456 1455 1454 1453 1452 1451 1450 1449 1448 1447 1446 1446 1445 1444 1443 1443 1442 1442 1441 1441 1441 1440 1439 1439 1438 1437 1436 1436 1435 1434 1433 1432 1431 1431 1429 1428 1427 1426 1426 1425 1423 1422 1421 1420 1419 1418 1417 1416 1415 1414 1412 1411 1410 1409 1408 1407 1406 1405 1403 1402 1401 1400 1399 1398 1397 1396 1395
1456 1455 1454 1453 1452 1451 1451 1450 1449 1448 1447 1446 1445 1445 1444 1443 1442 1442 1441 1441 1441 1440 1439 1438 1438 1437 1436 1436 1435 1434 1433 1432 1431 1431 1430 1428 1427 1426 1425 1424 1423 1422 1421 1420 1419 1418 1416 1416 1414 1413 1412 1411 1410 1409 1408 1406 1406 1404 1403 1402 1401 1400 1399 1397 1396 1395 1394 1393 1392
1454 1453 1452 1451 1451 1450 1449 1448 1447 1446 1446 1445 1444 1443 1443 1442 1441 1441 1441 1440 1439 1438 1438 1437 1436 1436 1435 1434 1433 1432 1431 1431 1430 1429 1427 1426 1425 1424 1423 1422 1421 1420 1419 1418 1416 1415 1414 1413 1412 1411 1410 1409 1408 1407 1406 1404 1403 1402 1401 1399 1398 1397 1396 1394 1393 1392 1391 1390 1389
1452 1451 1451 1450 1449 1448 1447 1447 1446 1445 1445 1444 1443 1442 1442 1441 1441 1440 1439 1439 1438 1437 1436 1436 1435 1434 1433 1432 1431 1431 1430 1429 1428 1426 1426 1424 1423 1422 1421 1420 1419 1418 1417 1416 1414 1413 1412 1411 1410 1409 1408 1407 1406 1404 1403 1402 1401 1399 1397 1396 1395 1394 1393 1391 1391 1389 1388 1388 1387
1451 1450 1449 1449 1448 1447 1446 1446 1445 1444 1443 1443 1442 1441 1441 1440 1439 1439 1438 1437 1436 1436 1435 1434 1433 1432 1431 1431 1430 1428 1427 1426 1426 1424 1423 1422 1421 1420 1419 1418 1417 1416 1415 1413 1412 1411 1410 1409 1408 1407 1406 1405 1403 1402 1401 1399 1397 1396 1395 1393 1392 1391 1390 1389 1388 1387 1386 1386 1385
1450 1449 1448 1447 1447 1446 1445 1445 1444 1443 1442 1441 1441 1440 1439 1439 1438 1437 1436 1436 1435 1434 1433 1432 1431 1431 1430 1429 1428 1426 1425 1424 1423 1422 1421 1420 1419 1418 1417 1416 1415 1414 1412 1411 1410 1409 1408 1407 1406 1405 1404 1402 1401 1399 1398 1396 1395 1393 1391 1390 1389 1388 1387 1386 1385 1385 1384 1384 1383
1448 1448 1447 1447 1446 1446 1445 1444 1443 1442 1441 1441 1440 1439 1438 1437 1436 1436 1435 1434 1433 1433 1432 1431 1430 1429 1428 1427 1426 1425 1423 1422 1421 1420 1419 1418 1417 1416 1415 1414 1413 1412 1411 1409 1408 1407 1406 1405 1404 1403 1401 1400 1398 1396 1395 1393 1392 1390 1389 1388 1386 1385 1384 1384 1383 1382 1382 1381 1381
1448 1447 1446 1446 1446 1445 1444 1443 1442 1441 1441 1440 1439 1438 1437 1436 1436 1435 1434 1433 1432 1431 1430 1429 1428 1427 1426 1425 1424 1423 1422 1421 1419 1418 1417 1416 1415 1414 1413 1411 1411 1410 1409 1407 1406 1405 1404 1403 1402 1401 1399 1397 1396 1394 1392 1391 1389 1388 1387 1386 1384 1383 1382 1382 1381 1381 1380 1380 1379
1447 1447 1446 1446 1445 1445 1444 1443 1442 1441 1440 1439 1438 1438 1437 1436 1435 1434 1433 1432 1431 1430 1429 1427 1426 1425 1424 1423 1422 1421 1420 1419 1418 1416 1415 1414 1413 1412 1411 1410 1409 1408 1407 1406 1404 1403 1402 1401 1400 1398 1397 1395 1393 1391 1390 1389 1387 1386 1385 1384 1382 1381 1381 1380 1379 1379 1378 1377 1377
1447 1446 1446 1445 1445 1444 1443 1443 1442 1441 1440 1439 1438 1437 1436 1436 1435 1433 1432 1431 1430 1428 1427 1426 1425 1424 1422 1421 1420 1419 1418 1417 1416 1415 1414 1412 1411 1410 1409 1408 1406 1406 1405 1404 1402 1401 1400 1399 1398 1396 1395 1393 1391 1390 1388 1387 1386 1384 1383 1382 1381 1380 1379 1378 1377 1377 1376 1375 1375
1447 1446 1446 1445 1445 1444 1443 1443 1442 1441 1440 1439 1438 1437 1436 1435 1433 1432 1431 1430 1428 1427 1426 1424 1423 1422 1421 1420 1418 1417 1416 1416 1415 1413 1412 1411 1410 1408 1407 1406 1405 1404 1403 1402 1401 1399 1398 1397 1396 1394 1393 1391 1390 1388 1387 1386 1384 1383 1382 1381 1380 1378 1377 1376 1375 1375 1374 1373 1372
1446 1446 1445 1445 1445 1444 1443 1442 1441 1441 1440 1438 1437 1436 1435 1433 1432 1431 1429 1428 1427 1425 1424 1423 1421 1421 1419 1418 1417 1416 1415 1414 1413 1412 1411 1409 1408 1407 1406 1404 1403 1402 1401 1400 1399 1397 1396 1395 1394 1392 1391 1390 1388 1387 1386 1384 1383 1381 1380 1379 1378 1377 1375 1374 1373 1372 1371 1371 1370
Wind_Speed
36 37 38 38 38 38 38 37 36 34 33 33 32 32 31 29 29 29 29 29 29 28 27 25 23 22 21 21 21 21 21 21 22 22 23 22 22 22 22 22 22 22 21 20 20 19 18 17 17 16 16 16 16 17 18 18 19 20 21 23 26 28 28 26 22 17 14 15 17
36 36 36 37 36 36 35 34 33 32 31 31 30 30 29 29 28 28 28 28 27 26 24 23 21 19 19 18 18 19 19 19 20 21 21 21 22 21 21 20 19 18 18 17 16 15 15 15 15 15 16 17 18 19 20 20 21 23 25 27 28 26 22 17 13 12 13 16 19
35 36 36 36 35 34 34 33 32 31 30 30 30 29 29 28 28 27 26 25 24 23 21 18 15 15 15 15 16 18 19 19 20 20 20 21 20 19 18 19 16 15 15 15 14 13 14 15 16 18 20 22 24 25 26 25 23 22 22 21 19 16 12 10 10 12 16 19 20
35 36 36 35 34 33 32 31 30 30 29 29 29 29 28 27 26 25 24 22 20 18 14 11 11 12 14 16 17 18 19 20 20 19 19 18 17 16 16 17 16 16 16 16 15 15 16 18 20 23 26 27 28 28 25 21 17 13 11 10 9 9 10 12 14 16 19 21 22
36 36 36 35 34 32 31 30 29 29 28 28 28 28 27 26 24 22 19 16 13 10 9 10 12 14 16 17 18 18 19 19 18 17 16 16 15 15 16 16 18 19 19 18 18 19 21 23 26 28 29 28 25 22 19 16 13 11 10 10 10 12 14 16 17 19 21 23 24
36 36 36 35 33 32 31 29 28 28 27 27 26 25 24 22 19 16 13 10 9 9 11 12 14 16 17 18 17 16 15 15 14 14 14 15 15 15 15 15 18 19 20 20 21 23 26 28 29 29 26 23 21 18 16 15 14 13 13 14 14 15 16 18 19 20 22 24 25
37 36 36 35 33 31 30 29 28 27 26 25 24 22 20 18 14 12 10 10 10 11 13 14 15 15 15 14 12 11 10 10 11 12 13 13 14 15 16 17 18 20 21 23 25 27 28 28 27 24 21 19 17 16 15 15 15 15 15 16 16 17 18 19 20 22 23 25 26
37 36 36 34 33 31 29 28 26 25 24 22 20 17 15 13 11 10 11 11 12 13 13 14 13 12 10 7 7 7 8 9 11 13 14 16 17 18 20 21 22 23 24 25 25 25 23 22 19 18 16 16 15 15 15 15 16 16 17 18 19 19 20 21 22 24 25 26 27
37 36 35 33 32 30 28 27 24 22 20 18 15 13 12 11 11 12 13 13 13 13 12 11 9 7 5 5 6 8 10 12 15 17 18 20 21 22 23 23 23 23 22 21 19 17 16 15 14 14 14 14 15 16 16 17 17 18 19 20 20 21 22 23 25 26 26 27 28
36 35 33 31 30 28 26 24 21 19 17 15 13 12 12 13 13 14 13 12 12 11 10 8 6 5 5 7 9 11 14 16 18 20 21 22 23 23 22 21 19 17 16 14 13 13 13 13 13 14 15 15 16 17 18 18 19 20 21 22 23 24 25 25 26 27 27 28 28
35 33 30 28 27 25 23 20 18 15 14 14 13 13 13 13 13 13 12 11 10 9 7 6 6 7 8 10 13 15 17 18 20 21 22 22 22 20 18 16 15 14 13 13 13 13 14 15 16 16 17 18 18 19 20 20 21 22 23 24 25 26 26 27 27 27 28 29 29
33 31 28 25 23 22 20 17 15 14 14 13 13 12 12 12 12 12 11 10 9 7 6 7 8 10 13 15 17 18 19 19 20 21 20 19 18 16 15 13 13 12 13 13 14 15 16 17 18 19 20 21 21 22 22 23 24 24 25 26 26 27 27 28 28 28 29 30 30
31 29 26 22 20 18 17 16 15 15 14 13 12 11 11 11 11 12 11 10 10 9 9 10 12 15 17 20 21 21 21 20 20 19 18 16 14 13 12 11 12 13 14 15 16 17 18 19 21 21 22 23 23 23 24 24 25 25 26 26 27 27 28 28 29 29 30 31 31
29 26 23 19 17 16 15 16 16 15 14 13 12 12 12 12 12 13 12 12 12 12 13 14 16 19 21 22 22 21 20 19 17 15 14 13 11 11 11 11 13 14 15 16 18 19 20 21 22 23 23 24 24 24 25 25 25 26 26 27 27 28 29 29 30 30 31 31 32
27 24 21 18 17 16 15 16 16 15 14 14 14 14 15 15 15 15 14 13 13 14 15 18 20 21 21 20 19 17 16 14 12 11 11 10 10 11 12 13 14 16 17 18 19 20 21 22 23 23 24 24 25 25 25 25 26 26 27 28 28 29 30 31 31 31 31 31 32
25 22 20 18 16 16 15 15 15 15 15 15 15 16 17 17 17 16 15 14 15 16 18 20 20 20 18 16 13 11 10 9 9 9 10 10 11 13 14 15 16 18 19 20 21 21 22 22 23 23 24 25 25 26 26 26 27 28 28 29 30 31 31 31 32 31 31 31 31
23 20 18 16 15 15 15 15 15 15 15 15 15 16 17 17 16 15 15 15 17 18 19 18 17 15 12 10 9 8 8 8 9 9 11 12 13 14 16 17 18 19 20 21 22 22 23 23 23 24 24 25 26 27 27 28 29 29 30 31 31 31 32 31 31 31 31 31 31
20 19 17 16 15 15 15 14 14 14 14 15 15 16 16 15 14 14 14 16 18 18 18 16 13 11 9 9 9 9 9 10 10 11 12 13 14 16 17 18 19 20 20 21 22 23 23 24 24 25 25 26 27 28 29 29 30 30 31 31 31 31 31 31 31 31 31 31 31
18 17 17 16 15 15 15 14 14 14 14 15 15 15 15 14 12 13 15 17 18 18 16 14 11 10 10 10 10 11 12 12 13 13 14 15 16 17 18 19 19 20 21 22 22 23 24 24 25 26 27 27 28 29 30 30 31 31 31 31 31 31 31 31 31 31 31 31 31
18 17 17 17 16 16 15 14 14 14 15 15 15 15 14 12 12 13 16 18 19 17 15 12 11 11 11 12 13 14 14 15 15 15 16 16 18 19 20 20 21 21 22 22 23 23 24 25 26 27 27 28 29 30 30 31 31 31 31 31 31 31 32 32 32 32 32 32 32
18 18 18 17 17 16 15 15 15 15 16 16 16 15 13 12 13 15 17 19 18 16 14 12 12 12 13 14 15 16 17 17 17 17 17 18 19 20 21 22 22 22 23 23 24 24 25 26 27 28 28 29 30 30 31 31 31 31 32 32 32 32 32 32 32 32 32 33 33
19 18 18 18 17 16 16 16 17 18 18 18 17 15 14 14 14 17 18 19 18 16 14 13 13 14 15 16 17 18 18 18 18 18 18 19 21 21 22 23 23 23 24 24 25 25 26 27 28 29 29 30 30 31 31 31 31 32 32 32 33 33 33 33 33 33 33 33 34
19 19 19 18 17 17 18 19 19 20 20 19 18 17 16 16 17 18 19 19 18 16 14 14 14 15 16 17 18 19 19 19 19 19 20 21 22 22 23 23 24 24 25 25 25 26 27 28 29 30 30 31 31 31 31 31 32 32 32 33 33 34 34 34 34 34 34 35 35
20 19 19 18 19 19 20 20 21 20 20 19 18 18 18 18 19 20 21 20 18 16 15 15 15 16 17 18 18 19 19 19 20 21 21 22 23 23 23 24 24 25 25 26 27 27 28 29 30 31 31 31 31 31 31 32 32 32 33 33 34 34 35 35 35 36 36 36 36
20 20 20 19 20 20 21 21 20 20 19 18 18 19 20 21 22 22 22 20 18 17 16 15 16 16 17 18 18 19 19 20 21 22 22 23 23 23 24 24 25 25 26 27 28 29 30 30 31 31 31 31 31 31 32 32 32 32 33 34 34 35 36 36 37 37 37 36 36
20 20 20 21 21 21 21 20 19 18 18 19 20 22 23 24 23 23 21 20 18 17 16 16 16 17 17 18 18 19 19 20 21 22 23 23 24 24 25 25 26 26 28 29 30 30 31 31 31 31 31 31 32 32 32 33 33 33 34 34 35 35 36 37 37 37 37 37 37
21 21 21 22 21 21 20 19 19 19 20 21 22 23 24 23 22 21 19 18 17 16 16 16 17 17 17 18 18 19 20 21 21 22 23 23 24 25 26 26 27 28 29 30 31 31 32 32 31 31 31 32 32 32 33 33 34 34 34 35 35 36 36 37 37 37 38 38 38
21 21 21 21 21 20 20 20 20 21 21 22 22 22 21 20 19 18 17 16 16 17 17 16 16 17 17 18 19 20 21 21 22 22 23 24 25 26 27 28 29 30 31 32 32 32 32 32 32 32 32 32 32 33 33 34 34 35 35 35 35 36 36 37 37 38 38 39 40
19 19 19 20 20 20 20 20 21 21 21 20 19 18 17 16 16 15 15 16 16 16 16 16 16 17 18 20 21 21 22 22 23 23 24 25 26 27 29 30 31 32 33 33 33 33 32 32 32 32 32 32 33 33 34 34 35 35 35 36 36 36 37 37 38 39 40 41 41
16 16 17 18 19 20 20 20 20 19 18 17 16 15 15 15 15 15 15 16 16 16 16 16 18 19 21 22 22 22 23 23 23 24 25 27 28 29 31 32 33 33 33 33 33 33 33 33 33 33 33 33 34 34 34 34 35 35 36 36 37 37 38 39 40 40 41 41 40
14 15 16 17 18 19 19 19 18 17 16 15 14 14 14 15 15 15 16 16 16 16 17 19 20 22 22 23 23 23 23 24 24 25 27 28 30 31 32 33 33 33 33 33 33 33 33 33 33 33 33 33 34 34 34 35 35 36 36 37 38 39 39 40 40 40 40 39 37
14 15 16 17 18 18 19 18 17 16 14 14 14 14 15 15 15 15 15 15 17 18 20 21 22 23 23 23 23 23 24 25 26 27 29 30 31 32 33 33 33 33 33 33 33 33 33 33 33 33 33 33 33 34 34 35 36 37 38 39 39 40 40 40 40 39 37 35 32
16 16 17 18 19 20 19 19 17 16 15 15 15 15 15 14 14 14 15 16 18 20 21 22 23 23 23 23 24 24 25 26 28 29 30 31 31 32 32 33 33 33 33 33 33 33 33 33 32 32 33 33 33 34 35 36 37 38 39 40 40 40 40 38 37 35 32 30 28
17 18 18 19 20 20 19 18 17 16 15 14 14 14 13 13 14 15 16 18 19 20 21 22 23 23 23 24 24 26 27 28 29 30 30 31 31 32 32 32 32 32 32 32 32 32 32 32 32 32 32 33 34 35 36 37 38 39 40 40 40 38 37 35 32 30 28 26 25
17 17 17 17 16 16 15 14 14 13 13 12 13 13 14 16 17 19 19 20 20 21 22 23 23 23 24 25 26 27 28 29 30 30 31 31 31 32 32 32 32 32 32 31 31 31 31 31 32 32 33 34 35 36 37 38 39 39 38 37 36 35 33 30 28 27 26 25 24
14 13 12 12 12 12 12 13 13 14 15 16 17 19 20 22 22 22 22 22 22 22 23 23 24 25 25 26 28 28 29 30 30 30 31 31 31 31 31 32 31 31 30 30 30 31 31 31 32 33 34 35 36 37 38 37 37 36 34 33 31 30 28 27 26 25 25 25 24
9 10 10 12 13 14 16 17 19 20 21 23 23 24 25 24 24 23 22 22 22 23 24 24 25 26 27 28 29 29 29 30 30 30 30 31 31 30 30 30 30 30 30 30 30 31 31 32 33 34 35 36 36 36 36 34 33 31 29 28 27 27 26 25 25 25 25 25 25
11 12 14 15 17 18 20 21 22 23 24 24 24 24 24 23 23 22 22 23 23 24 25 26 27 28 28 29 29 29 29 29 29 29 29 29 29 29 29 29 30 30 30 30 31 31 32 33 33 34 35 35 34 33 31 30 28 26 25 25 25 25 25 25 25 25 24 24 24
16 17 18 18 19 20 20 21 22 22 23 23 23 23 23 23 23 23 24 24 25 26 27 27 28 28 29 29 29 29 29 29 28 28 28 28 28 28 29 29 29 30 30 30 31 32 32 33 34 34 33 32 30 28 26 24 23 23 23 24 25 25 25 25 24 24 24 25 26
20 20 20 19 19 19 20 20 21 21 22 22 23 24 24 24 25 25 26 26 26 27 27 28 28 28 28 28 28 28 28 28 27 27 27 27 27 28 28 29 29 30 30 31 31 32 33 33 33 32 30 28 25 23 22 21 22 22 23 24 24 25 25 25 25 26 27 28 30
21 20 19 18 18 18 19 20 20 21 22 23 23 24 25 25 26 26 26 26 26 27 27 28 28 28 28 28 28 28 27 27 27 26 26 27 27 27 28 29 29 30 31 31 32 32 33 32 31 29 26 23 21 19 19 20 21 23 23 24 24 25 26 27 28 29 30 31 32
Wind_Direction
320 321 321 321 321 321 320 320 319 319 319 318 317 316 316 316 315 313 310 307 303 298 293 287 278 268 258 248 238 228 218 208 202 197 194 193 193 194 196 199 202 204 207 212 216 220 226 231 235 240 246 253 263 270 273 275 276 276 277 276 278 279 281 282 285 290 295 294 287
324 325 326 326 326 325 324 323 322 322 321 321 320 321 321 321 318 314 310 306 302 297 292 284 273 259 246 234 223 212 203 195 191 190 190 191 193 195 197 200 204 209 214 218 226 233 238 245 251 260 270 279 285 288 288 285 282 279 278 278 280 282 284 287 292 296 295 290 286
329 330 331 332 331 330 328 326 325 324 324 323 323 323 322 321 317 313 308 304 300 295 288 277 262 245 229 214 205 199 194 192 191 191 192 194 196 200 204 207 213 221 227 231 241 250 257 264 272 281 289 294 297 297 296 293 290 285 281 280 282 285 290 296 300 298 294 291 289
334 335 336 336 335 333 331 329 327 326 325 325 324 323 322 319 315 310 306 302 297 289 278 261 240 223 211 204 199 197 197 196 196 197 198 201 205 210 216 219 224 232 239 244 253 263 272 280 288 294 298 300 301 302 304 306 306 304 300 299 302 306 307 305 301 296 293 292 291
337 338 338 337 336 334 332 330 329 327 326 326 325 323 320 317 313 308 303 297 289 274 253 236 222 212 206 203 202 202 201 201 202 205 208 212 218 225 231 234 238 245 251 256 263 273 283 291 297 300 302 304 305 308 313 318 325 329 329 326 321 315 308 302 297 292 290 290 291
339 339 338 337 336 334 332 330 329 327 326 325 324 321 318 314 309 303 296 284 268 249 232 220 214 210 206 204 204 203 204 206 209 215 221 225 233 241 249 256 258 261 266 271 278 286 293 297 301 303 306 309 312 316 320 326 329 328 324 317 311 305 299 295 292 290 289 289 289
338 338 337 336 334 332 330 329 327 326 325 323 321 317 313 308 300 289 278 265 246 230 220 214 210 207 205 205 206 210 217 223 230 237 244 249 260 268 274 279 281 282 285 288 292 295 298 300 303 307 312 317 321 325 327 327 323 317 310 304 299 294 292 290 289 289 288 287 287
336 336 335 333 331 330 328 326 325 324 322 320 316 312 305 298 287 271 260 253 233 221 215 210 205 203 205 217 230 244 256 264 269 274 278 281 283 285 288 290 291 293 294 296 299 301 304 307 312 317 322 325 325 324 321 316 310 304 299 295 293 291 290 289 289 288 287 287 287
334 334 332 330 328 326 325 324 322 320 318 314 308 301 293 283 271 256 246 241 227 217 211 206 204 208 226 256 274 283 289 292 294 294 293 292 291 292 293 295 297 300 303 306 310 315 319 322 324 324 322 318 314 310 307 303 299 295 293 292 290 290 289 289 288 288 288 288 288
332 331 329 327 324 323 322 321 318 315 310 304 297 288 278 267 258 245 235 228 220 213 209 210 219 237 262 281 289 294 297 298 301 303 302 299 299 300 301 304 310 316 323 328 332 333 331 326 320 314 308 304 301 298 297 295 293 291 290 290 289 289 289 288 289 289 290 291 291
330 329 327 323 320 319 318 316 311 306 301 294 285 275 266 257 247 236 228 225 217 212 215 230 245 260 275 286 290 296 301 303 306 308 309 310 310 313 318 326 334 340 341 339 335 328 321 314 309 304 301 299 297 295 294 293 292 291 291 291 291 290 290 291 291 292 292 292 292
329 327 324 320 316 313 312 308 302 297 291 282 275 267 260 252 244 236 230 228 223 228 245 266 274 281 288 294 299 305 309 311 312 313 316 319 325 333 341 347 345 339 331 325 319 314 309 305 302 300 298 297 296 295 295 294 294 293 293 293 292 292 292 292 293 293 293 293 293
327 325 321 315 310 307 303 299 293 288 281 274 268 263 259 255 250 245 242 243 246 255 271 286 290 295 300 305 308 312 313 314 316 319 325 333 342 348 347 339 329 320 314 310 307 303 301 298 297 296 296 295 295 295 295 295 294 294 293 293 293 292 292 292 293 293 293 293 293
325 321 316 309 303 298 295 291 287 282 277 270 266 265 264 261 258 256 256 260 264 270 279 288 294 299 303 307 310 311 313 316 321 328 336 343 345 340 329 319 312 307 304 301 298 296 295 294 294 294 294 294 294 294 294 294 294 294 293 293 293 293 293 294 294 294 294 294 293
321 317 311 304 297 292 289 286 283 280 275 270 267 270 272 268 266 265 267 272 278 284 290 296 300 302 304 307 309 311 315 322 332 339 341 338 330 321 313 307 303 300 297 295 293 292 292 292 293 293 293 294 294 294 294 294 294 294 294 294 294 295 295 295 295 295 294 294 293
317 313 307 301 294 288 285 282 281 278 275 274 272 274 276 275 273 274 277 285 293 299 303 306 307 308 308 310 314 322 330 335 336 333 326 319 312 307 303 299 297 294 293 292 291 291 291 292 293 293 293 293 294 294 294 295 294 295 295 295 295 295 295 295 295 295 294 294 293
313 308 302 296 289 284 280 278 278 278 278 278 277 277 278 279 280 283 290 299 306 310 312 312 313 315 317 320 324 326 324 320 316 312 309 305 302 299 296 294 292 291 291 290 291 291 292 292 293 294 294 294 294 295 295 295 295 295 295 295 295 295 295 295 295 295 294 294 293
307 302 297 291 285 281 278 277 279 280 281 279 280 280 280 281 285 293 303 310 314 315 315 314 315 318 320 319 314 308 303 300 298 298 297 297 296 295 293 293 292 292 291 291 292 293 293 294 294 295 295 295 295 295 295 295 295 295 295 295 295 295 295 295 294 294 294 293 293
301 296 292 288 284 282 281 280 280 280 279 277 278 278 279 281 288 301 311 315 316 316 314 313 313 312 309 304 299 295 291 289 288 288 290 293 295 296 297 297 296 296 295 295 295 295 295 296 296 296 296 295 295 295 295 295 295 295 295 295 295 295 294 294 294 294 293 293 292
295 293 291 288 285 282 281 280 278 276 274 273 274 273 274 278 289 302 311 315 316 314 311 309 306 302 296 292 289 286 284 283 283 284 288 293 297 300 301 301 300 299 298 298 298 297 297 297 297 297 297 296 296 296 296 296 296 296 295 295 295 294 294 294 293 293 293 292 292
293 291 289 286 283 280 278 275 273 271 270 269 269 267 267 273 287 301 309 313 312 308 304 301 297 291 287 284 283 283 282 282 282 284 289 294 298 300 301 301 301 300 299 299 298 298 298 298 297 297 297 297 297 297 296 296 296 296 295 295 294 294 293 293 293 292 292 292 292
293 290 286 283 280 277 274 270 268 269 269 268 265 262 263 271 285 298 306 308 305 300 295 293 289 286 284 283 283 283 283 282 283 285 289 294 297 299 300 300 299 299 298 298 298 297 297 297 297 297 297 297 297 297 297 296 296 296 295 295 294 294 293 293 292 292 292 292 292
291 288 283 279 276 275 273 272 271 271 269 265 262 260 262 270 283 295 301 300 295 290 287 285 284 283 282 282 283 284 284 283 284 286 290 293 296 298 298 298 298 297 297 296 296 297 297 297 297 298 297 297 297 297 297 296 296 296 295 295 294 294 293 293 292 292 292 292 292
287 285 281 277 275 275 275 275 273 269 265 262 261 262 266 273 284 292 294 291 286 281 279 280 280 281 281 282 283 284 284 284 285 288 291 294 296 297 297 297 296 296 295 295 296 296 297 298 298 298 298 298 298 297 297 296 296 296 295 295 295 294 293 293 293 292 292 292 292
285 282 278 275 275 276 275 274 270 267 265 265 269 272 276 280 286 289 288 284 279 276 276 277 280 281 283 283 283 283 284 285 288 291 294 295 296 297 296 296 295 294 294 295 296 297 298 298 298 299 299 298 298 297 297 296 296 296 295 295 295 294 294 294 293 293 293 293 293
281 278 277 276 277 276 274 272 270 270 272 276 280 283 285 287 288 287 282 278 275 274 276 280 283 284 285 285 284 285 286 289 292 294 295 296 296 296 296 295 294 294 295 296 297 298 298 298 299 299 299 298 298 298 297 297 296 296 296 295 295 295 295 295 294 294 294 294 294
282 281 280 281 280 277 275 275 276 278 282 285 287 288 289 289 286 282 277 275 275 277 281 284 286 286 286 286 288 290 293 294 295 295 295 295 295 295 295 294 294 295 297 298 298 299 299 299 299 299 299 298 298 298 298 297 297 297 297 296 296 296 296 296 295 295 295 295 294
286 286 286 285 282 279 279 280 283 286 288 289 289 289 288 285 281 277 276 277 281 284 287 287 288 288 290 293 296 298 298 297 296 295 294 295 295 294 295 295 296 297 298 299 300 300 299 299 299 299 299 299 299 299 299 299 298 298 298 298 297 297 297 297 296 296 296 296 296
290 291 289 287 284 283 284 287 289 290 290 290 289 287 284 281 279 279 281 285 288 289 289 290 293 297 300 302 302 301 300 298 296 295 294 294 294 295 296 297 298 299 299 300 300 300 299 299 299 299 299 300 300 300 300 300 299 299 299 299 298 298 298 297 297 297 297 297 297
292 291 289 287 286 287 288 290 291 290 290 289 287 285 284 283 284 286 289 290 291 291 294 299 303 306 306 305 303 301 298 296 295 294 294 295 295 296 297 298 298 299 299 299 299 299 299 300 300 300 300 300 301 301 301 301 300 300 300 299 299 299 298 298 298 298 298 298 299
289 286 284 284 285 286 287 287 287 287 287 287 287 288 288 289 290 291 291 292 294 299 305 309 309 308 306 304 301 298 295 294 294 294 295 296 297 297 298 298 298 299 299 299 299 299 300 300 301 301 301 302 302 302 302 301 301 301 300 299 299 299 299 299 299 299 299 299 299
279 278 278 279 281 281 281 281 281 282 284 287 289 291 291 291 290 291 292 297 304 309 311 310 308 306 302 299 296 294 293 293 294 295 296 297 298 298 298 298 298 298 299 299 299 300 301 301 302 302 302 303 302 302 302 302 301 301 300 300 299 299 299 299 299 299 299 298 297
272 273 275 277 278 279 279 278 278 280 282 285 287 288 287 287 289 294 301 308 311 311 309 306 303 299 296 294 292 292 293 294 295 297 297 298 298 298 298 298 298 299 299 300 300 301 302 303 303 303 303 303 303 303 302 302 301 301 300 300 299 299 299 299 299 298 297 296 295
272 274 276 277 277 278 278 278 277 277 278 279 281 282 286 292 301 309 312 312 310 307 303 299 296 293 292 292 293 294 296 296 297 298 298 298 298 298 298 299 299 300 301 301 302 303 303 304 304 304 304 304 304 303 303 302 301 301 300 300 300 300 299 298 297 296 295 293 291
273 274 275 276 277 278 280 281 282 282 284 287 291 297 303 310 316 317 315 311 307 302 297 293 290 290 291 293 295 297 298 298 298 298 298 298 298 299 299 299 300 301 302 303 303 304 305 305 305 305 305 304 304 304 303 303 302 301 301 300 300 299 298 297 296 294 293 291 288
277 280 283 288 292 297 301 304 307 309 311 313 315 316 318 319 320 318 314 309 303 297 292 290 291 292 295 296 298 298 299 299 299 299 299 299 299 300 300 300 301 302 303 304 305 305 305 305 305 305 305 305 305 304 304 303 302 302 301 300 299 298 297 296 295 293 292 290 289
303 311 317 320 323 324 325 325 326 325 325 324 323 323 322 321 319 315 310 304 299 295 294 294 295 297 298 298 299 299 299 299 300 300 300 300 300 301 301 301 302 303 304 305 305 305 305 305 306 306 307 306 306 305 304 303 302 301 300 300 299 298 296 295 294 293 293 292 291
335 338 339 338 337 335 334 332 331 329 327 326 324 322 320 317 313 308 304 301 299 298 298 298 299 299 299 299 299 299 299 299 300 300 301 301 301 301 302 303 303 304 305 305 306 306 306 306 307 308 308 308 307 305 304 303 301 301 300 300 299 298 297 296 295 295 296 296 296
344 345 345 343 340 337 334 331 328 325 323 321 318 316 312 309 306 303 301 301 301 301 301 300 300 300 299 299 299 299 300 300 300 300 301 301 302 302 303 304 305 305 305 306 306 306 307 308 309 310 309 308 306 304 303 302 301 301 301 301 301 300 300 299 300 301 302 303 303
347 347 346 343 339 334 329 324 321 319 316 314 312 309 307 304 303 302 301 301 301 300 300 300 300 300 300 300 301 301 300 300 300 300 301 301 302 303 304 306 306 306 306 307 307 307 308 310 311 311 310 307 304 303 302 302 302 302 302 302 303 303 304 304 306 308 308 308 307
349 348 345 340 335 329 325 321 319 317 315 314 311 309 307 305 303 302 301 300 300 300 300 300 300 301 301 302 302 301 301 300 300 300 301 302 304 305 306 307 307 307 307 307 308 309 310 311 312 311 309 306 304 302 303 304 304 304 304 304 304 306 307 309 310 311 310 308 305